• In Netherlands
  • List of Countries
  • For 7 days
  • Water Temperature
  • Satellite Maps
  • Weather Map
  • Weather Widgets
  • user-avatar
    Login

    Hourly Weather Rechytsa

    Today, 29 June, Thursday

    Time Temperature Precipitation Wind Pressure Humidity
    00:00 +18°C° 0.1 mm 2 mps 747 mmHg 77%
    01:00 +17°C° 0.1 mm 2 mps 747 mmHg 79%
    02:00 +17°C° 0.1 mm 2 mps 747 mmHg 82%
    03:00 +17°C° 0 mm 2 mps 747 mmHg 82%
    04:00 +17°C° 0 mm 2 mps 747 mmHg 82%
    05:00 +17°C° 0 mm 3 mps 747 mmHg 82%
    06:00 +19°C° 0 mm 3 mps 747 mmHg 76%
    07:00 +21°C° 0 mm 3 mps 747 mmHg 70%
    08:00 +24°C° 0 mm 3 mps 747 mmHg 63%
    09:00 +26°C° 0 mm 4 mps 747 mmHg 58%
    10:00 +28°C° 0 mm 4 mps 746 mmHg 53%
    11:00 +30°C° 0 mm 5 mps 746 mmHg 48%
    12:00 +32°C° 0 mm 5 mps 746 mmHg 46%
    13:00 +33°C° 0 mm 5 mps 745 mmHg 44%
    14:00 +33°C° 0 mm 5 mps 745 mmHg 42%
    15:00 +33°C° 0 mm 5 mps 745 mmHg 44%
    16:00 +33°C° 0 mm 5 mps 744 mmHg 46%
    17:00 +32°C° 0 mm 5 mps 744 mmHg 48%
    18:00 +30°C° 0 mm 4 mps 743 mmHg 54%
    19:00 +28°C° 0 mm 4 mps 743 mmHg 61%
    20:00 +27°C° 0 mm 4 mps 743 mmHg 67%
    21:00 +25°C° 0.9 mm 4 mps 743 mmHg 75%
    22:00 +24°C° 0.9 mm 3 mps 743 mmHg 83%
    23:00 +21°C° 0.9 mm 3 mps 744 mmHg 90%

    Tomorrow, 30 June, Friday

    Time Temperature Precipitation Wind Pressure Humidity
    00:00 +21°C° 0.1 mm 3 mps 743 mmHg 91%
    01:00 +21°C° 0.1 mm 3 mps 743 mmHg 91%
    02:00 +21°C° 0.1 mm 3 mps 742 mmHg 92%
    03:00 +21°C° 0.1 mm 3 mps 742 mmHg 93%
    04:00 +20°C° 0.1 mm 3 mps 742 mmHg 95%
    05:00 +20°C° 0.1 mm 3 mps 742 mmHg 96%
    06:00 +21°C° 0.5 mm 3 mps 743 mmHg 92%
    07:00 +22°C° 0.5 mm 3 mps 743 mmHg 87%
    08:00 +24°C° 0.5 mm 3 mps 743 mmHg 83%
    09:00 +26°C° 0.1 mm 4 mps 743 mmHg 71%
    10:00 +28°C° 0.1 mm 4 mps 743 mmHg 59%
    11:00 +29°C° 0.1 mm 5 mps 743 mmHg 47%
    12:00 +30°C° 0 mm 5 mps 743 mmHg 45%
    13:00 +32°C° 0 mm 5 mps 742 mmHg 42%
    14:00 +32°C° 0 mm 5 mps 742 mmHg 39%
    15:00 +30°C° 0.1 mm 5 mps 742 mmHg 43%
    16:00 +30°C° 0.1 mm 4 mps 742 mmHg 48%
    17:00 +29°C° 0.1 mm 3 mps 742 mmHg 53%
    18:00 +27°C° 0.1 mm 3 mps 742 mmHg 59%
    19:00 +25°C° 0.1 mm 2 mps 742 mmHg 65%
    20:00 +23°C° 0.1 mm 2 mps 742 mmHg 72%
    21:00 +21°C° 0.6 mm 2 mps 743 mmHg 76%
    22:00 +20°C° 0.6 mm 2 mps 743 mmHg 80%
    23:00 +19°C° 0.6 mm 2 mps 744 mmHg 85%

    Day after tomorrow, 1 July, Saturday

    Time Temperature Precipitation Wind Pressure Humidity
    00:00 +19°C° 0.1 mm 2 mps 744 mmHg 87%
    01:00 +18°C° 0.1 mm 2 mps 744 mmHg 89%
    02:00 +17°C° 0.1 mm 2 mps 745 mmHg 91%
    03:00 +17°C° 0 mm 2 mps 745 mmHg 91%
    04:00 +17°C° 0 mm 2 mps 745 mmHg 91%
    05:00 +17°C° 0 mm 2 mps 746 mmHg 91%
    06:00 +19°C° 0 mm 2 mps 746 mmHg 84%
    07:00 +21°C° 0 mm 2 mps 746 mmHg 77%
    08:00 +24°C° 0 mm 2 mps 746 mmHg 69%
    09:00 +25°C° 0 mm 2 mps 746 mmHg 61%
    10:00 +26°C° 0 mm 2 mps 745 mmHg 54%
    11:00 +28°C° 0 mm 2 mps 745 mmHg 46%
    12:00 +25°C° 1.1 mm 3 mps 745 mmHg 61%
    13:00 +22°C° 1.1 mm 3 mps 745 mmHg 75%
    14:00 +19°C° 1.1 mm 3 mps 744 mmHg 90%
    15:00 +18°C° 2 mm 3 mps 744 mmHg 92%
    16:00 +18°C° 2 mm 3 mps 744 mmHg 94%
    17:00 +17°C° 2 mm 2 mps 743 mmHg 95%
    18:00 +17°C° 0.2 mm 2 mps 743 mmHg 96%
    19:00 +18°C° 0.2 mm 1 mps 743 mmHg 96%
    20:00 +18°C° 0.2 mm 1 mps 743 mmHg 96%
    21:00 +18°C° 0 mm 1 mps 743 mmHg 97%
    22:00 +16°C° 0 mm 1 mps 743 mmHg 97%
    23:00 +16°C° 0 mm 2 mps 743 mmHg 97%

    2 July, Sunday

    Time Temperature Precipitation Wind Pressure Humidity
    00:00 +16°C° 0 mm 2 mps 744 mmHg 97%
    01:00 +15°C° 0 mm 2 mps 744 mmHg 98%
    02:00 +15°C° 0 mm 2 mps 744 mmHg 98%
    03:00 +15°C° 0 mm 2 mps 744 mmHg 98%
    04:00 +15°C° 0 mm 2 mps 744 mmHg 98%
    05:00 +15°C° 0 mm 1 mps 744 mmHg 98%
    06:00 +16°C° 0 mm 2 mps 744 mmHg 92%
    07:00 +18°C° 0 mm 2 mps 744 mmHg 87%
    08:00 +19°C° 0 mm 2 mps 744 mmHg 82%
    09:00 +21°C° 0 mm 2 mps 744 mmHg 70%
    10:00 +24°C° 0 mm 2 mps 744 mmHg 58%
    11:00 +26°C° 0 mm 2 mps 744 mmHg 47%
    12:00 +26°C° 0 mm 3 mps 744 mmHg 45%
    13:00 +27°C° 0 mm 3 mps 744 mmHg 43%
    14:00 +28°C° 0 mm 3 mps 743 mmHg 41%
    15:00 +27°C° 0.1 mm 3 mps 743 mmHg 44%
    16:00 +27°C° 0.1 mm 2 mps 743 mmHg 48%
    17:00 +27°C° 0.1 mm 2 mps 743 mmHg 52%
    18:00 +25°C° 0.2 mm 2 mps 743 mmHg 61%
    19:00 +23°C° 0.2 mm 2 mps 743 mmHg 70%
    20:00 +20°C° 0.2 mm 2 mps 743 mmHg 79%
    21:00 +19°C° 0.5 mm 2 mps 743 mmHg 82%
    22:00 +18°C° 0.5 mm 2 mps 743 mmHg 85%
    23:00 +17°C° 0.5 mm 2 mps 743 mmHg 88%

    3 July, Monday

    Time Temperature Precipitation Wind Pressure Humidity
    00:00 +17°C° 0.1 mm 2 mps 743 mmHg 90%
    01:00 +16°C° 0.1 mm 2 mps 743 mmHg 92%
    02:00 +16°C° 0.1 mm 2 mps 743 mmHg 95%
    03:00 +16°C° 0 mm 2 mps 743 mmHg 95%
    04:00 +16°C° 0 mm 2 mps 743 mmHg 96%
    05:00 +16°C° 0 mm 2 mps 743 mmHg 96%
    06:00 +16°C° 0 mm 3 mps 743 mmHg 94%
    07:00 +17°C° 0 mm 3 mps 744 mmHg 91%
    08:00 +17°C° 0 mm 3 mps 744 mmHg 89%
    09:00 +18°C° 0.1 mm 3 mps 744 mmHg 84%
    10:00 +19°C° 0.1 mm 3 mps 744 mmHg 78%
    11:00 +20°C° 0.1 mm 3 mps 744 mmHg 73%
    12:00 +21°C° 0.1 mm 4 mps 744 mmHg 67%
    13:00 +22°C° 0.1 mm 4 mps 744 mmHg 61%
    14:00 +23°C° 0.1 mm 4 mps 744 mmHg 55%
    15:00 +22°C° 0.2 mm 4 mps 744 mmHg 59%
    16:00 +21°C° 0.2 mm 4 mps 744 mmHg 63%
    17:00 +21°C° 0.2 mm 5 mps 745 mmHg 67%
    18:00 +19°C° 0 mm 4 mps 745 mmHg 70%
    19:00 +17°C° 0 mm 4 mps 745 mmHg 73%
    20:00 +16°C° 0 mm 3 mps 745 mmHg 75%
    21:00 +14°C° 0 mm 3 mps 746 mmHg 78%
    22:00 +13°C° 0 mm 3 mps 746 mmHg 81%
    23:00 +13°C° 0 mm 2 mps 746 mmHg 83%

    4 July, Tuesday

    Time Temperature Precipitation Wind Pressure Humidity
    00:00 +13°C° 0 mm 2 mps 747 mmHg 83%
    01:00 +12°C° 0 mm 2 mps 747 mmHg 83%
    02:00 +12°C° 0 mm 2 mps 747 mmHg 83%
    03:00 +10°C° 0 mm 2 mps 747 mmHg 83%
    04:00 +10°C° 0 mm 2 mps 747 mmHg 84%
    05:00 +10°C° 0 mm 2 mps 747 mmHg 84%
    06:00 +13°C° 0 mm 2 mps 747 mmHg 77%
    07:00 +14°C° 0 mm 2 mps 747 mmHg 70%
    08:00 +16°C° 0 mm 2 mps 747 mmHg 62%
    09:00 +18°C° 0 mm 3 mps 747 mmHg 57%
    10:00 +19°C° 0 mm 3 mps 747 mmHg 52%
    11:00 +20°C° 0 mm 3 mps 746 mmHg 47%
    12:00 +21°C° 0 mm 3 mps 746 mmHg 45%
    13:00 +22°C° 0 mm 4 mps 746 mmHg 42%
    14:00 +23°C° 0 mm 4 mps 745 mmHg 40%
    15:00 +22°C° 0.1 mm 4 mps 745 mmHg 45%
    16:00 +22°C° 0.1 mm 4 mps 745 mmHg 49%
    17:00 +21°C° 0.1 mm 4 mps 745 mmHg 54%
    18:00 +19°C° 0.3 mm 3 mps 745 mmHg 64%
    19:00 +17°C° 0.3 mm 3 mps 745 mmHg 75%
    20:00 +14°C° 0.3 mm 3 mps 744 mmHg 85%
    21:00 +15°C° 0.3 mm 2 mps 745 mmHg 89%
    22:00 +14°C° 0.3 mm 2 mps 745 mmHg 92%
    23:00 +13°C° 0.3 mm 2 mps 745 mmHg 96%
    Show more